User: anonymous   Login
Location: Simi Valley
(34.2690°N, 118.7810°W)
Time: 06:54:26
(UTC-07:00)
Language:

SAR-Lupe-1 - Orbit

View from above orbital plane
View from above orbital plane
View from above satellite
View from above satellite

Ground track
Ground track

The orbit data is extracted from the following two-line orbital elements,

1 29658U 06060A   17227.87276356 0.00000900  00000-0  33636-4 0    02
2 29658  98.1408 284.6917 0005000   4.3791 355.6208 15.27373513    04
Epoch (UTC): 15 August 2017 20:56:46
Eccentricity: 0.0005000
inclination: 98.1408°
perigee height: 480 km
apogee height: 487 km
right ascension of ascending node: 284.6917°
argument of perigee: 4.3791°
revolutions per day: 15.27373513
mean anomaly at epoch: 355.6208°
orbit number at epoch: 0

The dashed part of the orbit path shows where the satellite is in the earth's shadow,  

DLR